TimeEST,TemperatureF,Dew PointF,Humidity,Sea Level PressureIn,VisibilityMPH,Wind Direction,Wind SpeedMPH,Gust SpeedMPH,PrecipitationIn,Events,Conditions,WindDirDegrees,DateUTC
12:53 AM,71.1,64.9,81,30.28,10.0,SE,11.5,-,N/A,,Clear,130,2012-02-27 05:53:00
1:53 AM,71.1,64.9,81,30.27,10.0,ESE,12.7,-,N/A,,Clear,120,2012-02-27 06:53:00
2:53 AM,71.1,64.9,81,30.26,10.0,ESE,11.5,-,N/A,,Clear,120,2012-02-27 07:53:00
3:53 AM,71.1,64.9,81,30.25,10.0,ESE,9.2,-,N/A,,Clear,120,2012-02-27 08:53:00
4:53 AM,71.1,64.9,81,30.26,10.0,ESE,9.2,-,N/A,,Clear,120,2012-02-27 09:53:00
5:53 AM,71.1,64.9,81,30.26,10.0,ESE,9.2,-,N/A,,Scattered Clouds,110,2012-02-27 10:53:00
6:53 AM,71.1,64.9,81,30.27,10.0,ESE,10.4,-,N/A,,Clear,110,2012-02-27 11:53:00
7:53 AM,73.0,66.0,79,30.29,10.0,ESE,11.5,-,N/A,,Mostly Cloudy,120,2012-02-27 12:53:00
8:53 AM,75.9,66.9,74,30.30,10.0,ESE,17.3,-,N/A,,Overcast,120,2012-02-27 13:53:00
9:53 AM,78.1,68.0,71,30.31,10.0,ESE,16.1,-,N/A,,Mostly Cloudy,120,2012-02-27 14:53:00
10:53 AM,80.1,68.0,67,30.32,10.0,SE,15.0,19.6,N/A,,Mostly Cloudy,130,2012-02-27 15:53:00
11:53 AM,79.0,66.9,66,30.30,10.0,SE,17.3,-,N/A,,Mostly Cloudy,130,2012-02-27 16:53:00
12:53 PM,78.1,66.9,68,30.28,10.0,ESE,15.0,-,N/A,,Mostly Cloudy,120,2012-02-27 17:53:00
1:03 PM,78.8,66.2,65,30.27,10.0,SE,17.3,24.2,N/A,,Mostly Cloudy,130,2012-02-27 18:03:00
1:36 PM,78.8,66.2,65,30.25,10.0,ESE,16.1,-,N/A,,Overcast,120,2012-02-27 18:36:00
1:53 PM,79.0,66.9,66,30.25,10.0,ESE,17.3,23.0,N/A,,Mostly Cloudy,120,2012-02-27 18:53:00
2:53 PM,75.9,66.9,74,30.23,10.0,SE,17.3,-,N/A,,Mostly Cloudy,130,2012-02-27 19:53:00
3:53 PM,75.0,68.0,79,30.23,10.0,SE,13.8,-,N/A,,Mostly Cloudy,140,2012-02-27 20:53:00
4:53 PM,73.9,69.1,85,30.24,9.0,East,8.1,-,0.01,,Overcast,100,2012-02-27 21:53:00
5:53 PM,73.9,69.1,85,30.24,10.0,ESE,6.9,-,N/A,,Overcast,120,2012-02-27 22:53:00
6:53 PM,73.0,69.1,87,30.25,10.0,ESE,8.1,-,N/A,,Mostly Cloudy,120,2012-02-27 23:53:00
7:53 PM,73.0,69.1,87,30.25,10.0,East,8.1,-,N/A,,Mostly Cloudy,100,2012-02-28 00:53:00
8:07 PM,73.4,69.8,88,30.27,10.0,ESE,8.1,-,N/A,,Mostly Cloudy,110,2012-02-28 01:07:00
8:42 PM,73.4,69.8,88,30.27,10.0,East,8.1,-,N/A,,Scattered Clouds,100,2012-02-28 01:42:00
8:53 PM,73.0,69.1,87,30.27,10.0,ESE,8.1,-,N/A,,Scattered Clouds,110,2012-02-28 01:53:00
9:53 PM,72.0,68.0,87,30.30,10.0,NE,8.1,-,N/A,,Mostly Cloudy,50,2012-02-28 02:53:00
10:02 PM,71.6,66.2,83,30.30,10.0,NE,6.9,-,N/A,,Overcast,50,2012-02-28 03:02:00
10:26 PM,71.6,66.2,83,30.31,10.0,ENE,10.4,-,N/A,,Overcast,60,2012-02-28 03:26:00
10:29 PM,71.6,66.2,83,30.31,10.0,ENE,10.4,-,N/A,,Overcast,60,2012-02-28 03:29:00
10:53 PM,69.1,66.0,90,30.31,5.0,East,11.5,-,0.05,Rain,Rain,100,2012-02-28 03:53:00
11:14 PM,68.0,66.2,94,30.31,1.8,ENE,5.8,-,0.13,Rain,Heavy Rain,60,2012-02-28 04:14:00
11:33 PM,68.0,66.2,94,30.30,2.0,East,10.4,-,0.76,Rain-Thunderstorm,Heavy Rain,100,2012-02-28 04:33:00
11:44 PM,68.0,66.2,94,30.30,3.0,East,8.1,-,0.86,Rain-Thunderstorm,Rain,100,2012-02-28 04:44:00
11:51 PM,68.0,66.2,94,30.30,3.0,ESE,5.8,-,0.91,Rain,Heavy Rain,110,2012-02-28 04:51:00
11:53 PM,68.0,66.0,93,30.30,3.0,ESE,6.9,-,0.93,Rain,Rain,120,2012-02-28 04:53:00